sat.trackr.live / text

‹ back to catalog

DONGPO 10

NORAD 54689 · 2022-167H

PAYLOAD ACTIVE UNKNOWN

§ Identity

Operator
Country
PRC
Launch date
2022-12-09
Launch site
SEAL
Launch vehicle
Mass (kg)
RCS (m²)

External: N2YO · Heavens-Above · Gunter

§ Orbital elements

Epoch: 2026-05-25T04:16:37.256736Z

Period
93.88 min
Inclination
97.6931°
Eccentricity
0.0005147
Mean motion
15.33909802 rev/d
Perigee alt
460.6 km
Apogee alt
467.7 km
Semi-major
6,842.3 km
B*
2.9055e-4
RAAN
314.3544°
Arg perigee
179.6584°
Mean anomaly
180.4662°
Rev number
19,183

§ Raw data

DONGPO 101 54689U 22167H   26145.17820899  .00009451  00000+0  29055-3 0  99942 54689  97.6931 314.3544 0005147 179.6584 180.4662 15.33909802191839

JSON: /api/v1/satellites/54689 · /tle

For live sub-satellite position, see the globe view (requires WebGL).

§ Visibility from observer

Set your observer location to see the next 7 days of passes ≥ 10°. The values pass through the URL so the page stays shareable.

No JS? Fill the form by hand. The geolocation button needs JavaScript.

§ Radio — SatNOGS DB

ModeDescriptionDownlinkUplink
FM Jillin Mysterious Pip 1.616 GHz

1 transmitter · refreshed weekly from db.satnogs.org